Date String (YYYY-MM-DD hh:mm:ss) UTC,Instrument flags,Ambient pressure (hPa),Sample flow (lpm),Bypass flow (lpm),Sample temperature (°C),Ambient temperature (°C),ASC tube jacket temperature (°C),LED temperature (°C),Box temperature (°C),Sample RH (%),Span deviation,Mass concentration (μg/m³),Mass concentration (μg/m³),Mass concentration (μg/m³)
DateTimeUTC,F1_M11,P_M11,Q1_M11,Q2_M11,T1_M11,T2_M11,T3_M11,T4_M11,T5_M11,U1_M11,ZSPAN_M11,X0_M11,X2_M11,X1_M11
2021-10-05 02:00:00,,0831.7,5.00,0.00,29.5,28.5,00.0,38.4,31.3,12.0,0000.0,0013.73,0004.54,0003.56
2021-10-05 02:01:00,,0831.7,5.00,0.00,29.5,28.6,00.0,38.5,31.4,12.0,0001.8,0014.15,0004.52,0003.55
2021-10-05 02:02:00,,0831.7,5.00,0.00,29.6,28.7,00.0,38.5,31.4,11.9,0001.9,0013.74,0004.50,0003.54
2021-10-05 02:03:00,,0831.7,5.00,0.00,29.6,28.8,00.0,38.5,31.5,11.9,0000.2,0013.67,0004.45,0003.53
2021-10-05 02:04:00,,0831.7,5.01,0.00,29.6,28.8,00.0,38.5,31.5,12.1,0000.7,0013.66,0004.43,0003.52
2021-10-05 02:05:00,,0831.7,5.00,0.00,29.7,28.9,00.0,38.6,31.6,12.3,0001.0,0013.90,0004.41,0003.52
2021-10-05 02:06:00,,0831.7,5.01,0.00,29.7,29.0,00.0,38.6,31.6,12.1,0002.9,0013.69,0004.41,0003.51
2021-10-05 02:07:00,,0831.7,5.00,0.00,29.8,29.0,00.0,38.6,31.7,12.2,0003.1,0012.75,0004.40,0003.51
2021-10-05 02:08:00,,0831.7,4.99,0.00,29.8,29.1,00.0,38.7,31.7,12.4,0004.0,0012.49,0004.35,0003.51
2021-10-05 02:09:00,,0831.7,5.00,0.00,29.8,29.1,00.0,38.7,31.7,12.1,0001.5,0012.70,0004.35,0003.52
2021-10-05 02:10:00,,0831.7,5.01,0.00,29.8,27.5,00.0,38.7,31.3,12.1,0002.0,0012.25,0004.30,0003.51
2021-10-05 02:11:00,,0831.7,5.00,0.00,29.6,26.2,00.0,38.7,30.9,12.1,0003.5,0011.90,0004.29,0003.52
2021-10-05 02:12:00,,0831.8,5.01,0.00,29.5,26.3,00.0,38.7,31.0,12.3,0003.7,0012.10,0004.25,0003.53
2021-10-05 02:13:00,,0831.8,5.00,0.00,29.5,26.7,00.0,38.6,31.0,12.4,0003.7,0011.75,0004.25,0003.53
2021-10-05 02:14:00,,0831.7,5.00,0.00,29.4,27.1,00.0,38.6,31.1,12.5,0003.3,0011.35,0004.26,0003.54
2021-10-05 02:15:00,,0831.7,4.99,0.00,29.4,27.5,00.0,38.6,31.1,12.4,0003.1,0011.63,0004.26,0003.54
2021-10-05 02:16:00,,0831.7,5.01,0.00,29.5,27.8,00.0,38.6,31.2,12.1,0002.7,0012.04,0004.28,0003.53
2021-10-05 02:17:00,,0831.7,5.01,0.00,29.5,28.0,00.0,38.6,31.3,12.1,0002.5,0012.15,0004.27,0003.53
2021-10-05 02:18:00,,0831.7,4.98,0.00,29.5,28.2,00.0,38.6,31.3,12.0,0001.9,0013.07,0004.30,0003.53
2021-10-05 02:19:00,,0831.7,5.00,0.00,29.6,28.3,00.0,38.6,31.3,12.1,0001.9,0013.14,0004.32,0003.54
2021-10-05 02:20:00,,0831.7,5.01,0.00,29.6,28.5,00.0,38.6,31.4,12.2,0001.8,0013.96,0004.36,0003.54
2021-10-05 02:21:00,,0831.7,5.00,0.00,29.6,28.6,00.0,38.6,31.4,12.3,0002.2,0014.49,0004.38,0003.55
2021-10-05 02:22:00,,0831.7,5.00,0.00,29.7,28.7,00.0,38.6,31.5,12.1,0002.1,0014.48,0004.37,0003.54
2021-10-05 02:23:00,,0831.8,4.99,0.00,29.7,28.7,00.0,38.6,31.5,12.2,0000.8,0014.22,0004.40,0003.53
2021-10-05 02:24:00,,0831.8,4.99,0.00,29.7,28.8,00.0,38.7,31.6,12.3,0000.2,0014.08,0004.42,0003.53
2021-10-05 02:25:00,,0831.9,5.00,0.00,29.8,28.9,00.0,38.7,31.6,12.1,0000.0,0013.80,0004.42,0003.52
2021-10-05 02:26:00,,0832.0,5.00,0.00,29.8,29.0,00.0,38.7,31.7,12.2,0000.0,0013.34,0004.42,0003.52
2021-10-05 02:27:00,,0832.0,5.00,0.00,29.8,29.0,00.0,38.7,31.7,12.0,0000.0,0012.75,0004.37,0003.53
2021-10-05 02:28:00,,0832.0,5.00,0.00,29.9,29.1,00.0,38.8,31.7,12.2,0000.8,0012.49,0004.36,0003.53
2021-10-05 02:29:00,,0832.0,5.00,0.00,29.9,29.1,00.0,38.8,31.7,12.1,0001.2,0011.97,0004.34,0003.53
2021-10-05 02:30:00,,0832.0,5.00,0.00,29.9,28.2,00.0,38.8,31.5,11.9,0000.6,0011.69,0004.30,0003.51
2021-10-05 02:31:00,,0831.9,5.01,0.00,29.7,26.3,00.0,38.8,31.0,12.1,0000.0,0010.58,0004.26,0003.50
2021-10-05 02:32:00,,0831.8,5.00,0.00,29.6,26.2,00.0,38.8,31.0,12.1,0000.0,0010.46,0004.26,0003.49
2021-10-05 02:33:00,,0831.9,5.00,0.00,29.5,26.6,00.0,38.7,31.0,12.2,0000.5,0012.43,0004.27,0003.48
2021-10-05 02:34:00,,0832.0,5.00,0.00,29.5,27.0,00.0,38.7,31.1,12.2,0001.0,0012.32,0004.34,0003.49
2021-10-05 02:35:00,,0832.0,5.00,0.00,29.5,27.4,00.0,38.7,31.2,12.2,0000.2,0013.08,0004.38,0003.49
2021-10-05 02:36:00,,0832.0,4.99,0.00,29.5,27.7,00.0,38.6,31.2,12.1,0000.0,0013.93,0004.39,0003.48
2021-10-05 02:37:00,,0831.9,5.00,0.00,29.5,28.0,00.0,38.6,31.3,12.2,0000.2,0014.21,0004.39,0003.48
2021-10-05 02:38:00,,0831.9,5.00,0.00,29.6,28.1,00.0,38.6,31.3,12.1,0000.5,0014.41,0004.42,0003.48
2021-10-05 02:39:00,,0832.0,5.00,0.00,29.6,28.3,00.0,38.6,31.4,12.2,0000.1,0015.22,0004.42,0003.48
2021-10-05 02:40:00,,0832.1,4.98,0.00,29.6,28.5,00.0,38.6,31.4,12.1,0000.5,0015.19,0004.45,0003.49
2021-10-05 02:41:00,,0832.1,5.00,0.00,29.6,28.6,00.0,38.7,31.5,12.0,0001.6,0015.41,0004.45,0003.49
2021-10-05 02:42:00,,0832.1,5.00,0.00,29.7,28.7,00.0,38.7,31.5,12.0,0001.7,0015.58,0004.44,0003.48
2021-10-05 02:43:00,,0832.1,5.00,0.00,29.7,28.7,00.0,38.7,31.5,12.1,0001.7,0014.90,0004.45,0003.49
2021-10-05 02:44:00,,0832.1,4.99,0.00,29.7,28.8,00.0,38.7,31.6,12.2,0000.0,0013.00,0004.42,0003.49
2021-10-05 02:45:00,,0832.1,5.01,0.00,29.8,28.9,00.0,38.7,31.6,12.0,0000.0,0012.67,0004.35,0003.48
2021-10-05 02:46:00,,0832.1,5.00,0.00,29.8,28.9,00.0,38.8,31.7,12.1,0000.0,0012.50,0004.35,0003.48
2021-10-05 02:47:00,,0832.1,4.99,0.00,29.8,29.0,00.0,38.8,31.7,12.0,0001.0,0011.75,0004.36,0003.50
2021-10-05 02:48:00,,0832.1,5.01,0.00,29.9,29.0,00.0,38.8,31.7,11.8,0000.8,0012.45,0004.36,0003.50
2021-10-05 02:49:00,,0832.0,4.99,0.00,29.9,29.1,00.0,38.8,31.8,11.8,0000.0,0012.69,0004.34,0003.49
2021-10-05 02:50:00,,0832.1,5.00,0.00,29.9,29.1,00.0,38.8,31.8,11.9,0000.0,0011.95,0004.34,0003.49
2021-10-05 02:51:00,,0832.1,5.02,0.00,30.0,28.7,00.0,38.9,31.7,11.9,0000.0,0011.87,0004.36,0003.49
2021-10-05 02:52:00,,0832.1,4.99,0.00,29.8,26.6,00.0,38.8,31.1,11.9,0000.0,0012.52,0004.41,0003.51
2021-10-05 02:53:00,,0832.1,5.01,0.00,29.7,26.1,00.0,38.8,31.0,12.0,0000.0,0013.16,0004.44,0003.52
2021-10-05 02:54:00,,0832.1,5.01,0.00,29.6,26.4,00.0,38.8,31.0,12.1,0000.0,0013.91,0004.45,0003.52
2021-10-05 02:55:00,,0832.1,4.99,0.00,29.5,26.8,00.0,38.7,31.1,12.1,0000.0,0014.70,0004.51,0003.54
2021-10-05 02:56:00,,0832.1,5.01,0.00,29.5,27.2,00.0,38.7,31.1,12.2,0000.0,0016.27,0004.53,0003.55
2021-10-05 02:57:00,,0832.1,4.98,0.00,29.5,27.6,00.0,38.7,31.2,12.1,0000.0,0016.22,0004.50,0003.54
2021-10-05 02:58:00,,0832.1,4.99,0.00,29.5,27.8,00.0,38.7,31.2,12.0,0000.0,0016.31,0004.50,0003.53
2021-10-05 02:59:00,,0832.2,5.01,0.00,29.5,28.0,00.0,38.7,31.3,12.1,0000.0,0016.10,0004.51,0003.54
